User: anonymous   Login
Location: ?????
(54.9266°N, 38.5527°E)
Time: 19:05:03
(UTC+00:00)
Language:

Cosmos 972 Rocket - Orbit

View from above orbital plane
View from above orbital plane
View from above satellite
View from above satellite

Ground track
Ground track

The orbit data is extracted from the following two-line orbital elements,

1 10541U 77123B   24177.30277435  .00000072  00000-0  49756-4 0  9997
2 10541  75.8362 110.3071 0299486 308.6354  48.8316 13.89119224356233
Epoch (UTC): 25 June 2024 07:15:59
Eccentricity: 0.0299486
inclination: 75.8362°
perigee height: 713 km
apogee height: 1150 km
right ascension of ascending node: 110.3071°
argument of perigee: 308.6354°
revolutions per day: 13.89119224
mean anomaly at epoch: 48.8316°
orbit number at epoch: 35623

The dashed part of the orbit path shows where the satellite is in the earth's shadow,  

DLR